Hourly Weather Bolshie Novosyady

Today, 17 June, Thursday

Time Temperature Precipitation Wind Pressure Humidity
00:00 +12°C° 0 mm 1 mps 749 mmHg 82%
01:00 +12°C° 0 mm 1 mps 750 mmHg 83%
02:00 +11°C° 0 mm 1 mps 750 mmHg 84%
03:00 +12°C° 0 mm 1 mps 750 mmHg 84%
04:00 +12°C° 0 mm 1 mps 750 mmHg 83%
05:00 +12°C° 0 mm 1 mps 750 mmHg 83%
06:00 +14°C° 0 mm 1 mps 750 mmHg 78%
07:00 +16°C° 0 mm 1 mps 751 mmHg 72%
08:00 +18°C° 0 mm 2 mps 751 mmHg 66%
09:00 +20°C° 0 mm 2 mps 751 mmHg 62%
10:00 +21°C° 0 mm 2 mps 751 mmHg 58%
11:00 +23°C° 0 mm 2 mps 752 mmHg 54%
12:00 +24°C° 0 mm 2 mps 752 mmHg 53%
13:00 +24°C° 0 mm 2 mps 751 mmHg 52%
14:00 +25°C° 0 mm 2 mps 751 mmHg 51%
15:00 +25°C° 0 mm 2 mps 751 mmHg 54%
16:00 +25°C° 0 mm 2 mps 751 mmHg 56%
17:00 +25°C° 0 mm 2 mps 751 mmHg 58%
18:00 +24°C° 0 mm 2 mps 751 mmHg 64%
19:00 +21°C° 0 mm 2 mps 751 mmHg 71%
20:00 +20°C° 0 mm 2 mps 751 mmHg 77%
21:00 +19°C° 0 mm 2 mps 751 mmHg 79%
22:00 +17°C° 0 mm 2 mps 751 mmHg 80%
23:00 +16°C° 0 mm 2 mps 752 mmHg 82%

Tomorrow, 18 June, Friday

Time Temperature Precipitation Wind Pressure Humidity
00:00 +16°C° 0 mm 2 mps 752 mmHg 84%
01:00 +15°C° 0 mm 2 mps 752 mmHg 86%
02:00 +15°C° 0 mm 2 mps 752 mmHg 89%
03:00 +15°C° 0 mm 2 mps 752 mmHg 89%
04:00 +15°C° 0 mm 2 mps 752 mmHg 89%
05:00 +15°C° 0 mm 2 mps 752 mmHg 89%
06:00 +17°C° 0 mm 2 mps 752 mmHg 83%
07:00 +19°C° 0 mm 2 mps 752 mmHg 78%
08:00 +21°C° 0 mm 2 mps 752 mmHg 72%
09:00 +22°C° 0 mm 3 mps 752 mmHg 68%
10:00 +24°C° 0 mm 3 mps 752 mmHg 64%
11:00 +25°C° 0 mm 3 mps 752 mmHg 59%
12:00 +26°C° 0 mm 3 mps 752 mmHg 57%
13:00 +26°C° 0 mm 3 mps 751 mmHg 55%
14:00 +26°C° 0 mm 3 mps 751 mmHg 54%
15:00 +26°C° 0 mm 3 mps 751 mmHg 57%
16:00 +26°C° 0 mm 3 mps 751 mmHg 59%
17:00 +26°C° 0 mm 3 mps 751 mmHg 62%
18:00 +24°C° 0 mm 3 mps 751 mmHg 68%
19:00 +23°C° 0 mm 2 mps 750 mmHg 73%
20:00 +20°C° 0 mm 2 mps 750 mmHg 79%
21:00 +19°C° 0 mm 2 mps 751 mmHg 82%
22:00 +18°C° 0 mm 2 mps 751 mmHg 84%
23:00 +17°C° 0 mm 2 mps 751 mmHg 87%

Day after tomorrow, 19 June, Saturday

Time Temperature Precipitation Wind Pressure Humidity
00:00 +17°C° 0 mm 2 mps 751 mmHg 89%
01:00 +17°C° 0 mm 2 mps 751 mmHg 91%
02:00 +17°C° 0 mm 2 mps 751 mmHg 93%
03:00 +17°C° 0 mm 2 mps 751 mmHg 93%
04:00 +16°C° 0 mm 2 mps 751 mmHg 93%
05:00 +16°C° 0 mm 2 mps 751 mmHg 92%
06:00 +18°C° 0 mm 3 mps 751 mmHg 88%
07:00 +20°C° 0 mm 3 mps 751 mmHg 84%
08:00 +22°C° 0 mm 3 mps 751 mmHg 80%
09:00 +24°C° 0 mm 3 mps 751 mmHg 75%
10:00 +25°C° 0 mm 3 mps 751 mmHg 70%
11:00 +26°C° 0 mm 3 mps 751 mmHg 66%
12:00 +27°C° 0 mm 3 mps 750 mmHg 65%
13:00 +27°C° 0 mm 3 mps 750 mmHg 64%
14:00 +28°C° 0 mm 3 mps 750 mmHg 63%
15:00 +28°C° 0 mm 3 mps 749 mmHg 64%
16:00 +27°C° 0 mm 3 mps 749 mmHg 66%
17:00 +27°C° 0 mm 3 mps 749 mmHg 67%
18:00 +26°C° 0 mm 2 mps 749 mmHg 72%
19:00 +25°C° 0 mm 2 mps 749 mmHg 77%
20:00 +23°C° 0 mm 2 mps 749 mmHg 83%
21:00 +21°C° 0 mm 2 mps 749 mmHg 85%
22:00 +20°C° 0 mm 2 mps 749 mmHg 87%
23:00 +19°C° 0 mm 2 mps 749 mmHg 89%

20 June, Sunday

Time Temperature Precipitation Wind Pressure Humidity
00:00 +18°C° 0 mm 2 mps 749 mmHg 90%
01:00 +18°C° 0 mm 2 mps 749 mmHg 91%
02:00 +17°C° 0 mm 2 mps 749 mmHg 92%
03:00 +17°C° 0 mm 2 mps 749 mmHg 92%
04:00 +17°C° 0 mm 2 mps 749 mmHg 92%
05:00 +17°C° 0 mm 2 mps 749 mmHg 93%
06:00 +19°C° 0 mm 2 mps 749 mmHg 88%
07:00 +21°C° 0 mm 3 mps 749 mmHg 83%
08:00 +24°C° 0 mm 3 mps 749 mmHg 78%
09:00 +25°C° 0.1 mm 3 mps 749 mmHg 74%
10:00 +26°C° 0.1 mm 3 mps 749 mmHg 71%
11:00 +27°C° 0.1 mm 3 mps 749 mmHg 68%
12:00 +27°C° 1.4 mm 4 mps 748 mmHg 70%
13:00 +27°C° 1.4 mm 4 mps 748 mmHg 72%
14:00 +27°C° 1.4 mm 4 mps 748 mmHg 74%
15:00 +27°C° 0.5 mm 3 mps 748 mmHg 72%
16:00 +27°C° 0.5 mm 3 mps 747 mmHg 70%
17:00 +27°C° 0.5 mm 2 mps 747 mmHg 68%
18:00 +26°C° 0.2 mm 2 mps 747 mmHg 73%
19:00 +25°C° 0.2 mm 2 mps 747 mmHg 78%
20:00 +24°C° 0.2 mm 1 mps 747 mmHg 83%
21:00 +23°C° 0 mm 2 mps 747 mmHg 86%
22:00 +21°C° 0 mm 2 mps 747 mmHg 88%
23:00 +20°C° 0 mm 2 mps 747 mmHg 91%

21 June, Monday

Time Temperature Precipitation Wind Pressure Humidity
00:00 +19°C° 0 mm 2 mps 747 mmHg 92%
01:00 +19°C° 0 mm 2 mps 747 mmHg 93%
02:00 +19°C° 0 mm 2 mps 747 mmHg 94%
03:00 +18°C° 0 mm 2 mps 746 mmHg 94%
04:00 +18°C° 0 mm 2 mps 746 mmHg 94%
05:00 +18°C° 0 mm 2 mps 746 mmHg 94%
06:00 +19°C° 0 mm 3 mps 746 mmHg 89%
07:00 +21°C° 0 mm 3 mps 747 mmHg 84%
08:00 +22°C° 0 mm 4 mps 747 mmHg 79%
09:00 +25°C° 0 mm 4 mps 746 mmHg 73%
10:00 +26°C° 0 mm 4 mps 746 mmHg 66%
11:00 +27°C° 0 mm 4 mps 746 mmHg 60%
12:00 +28°C° 0 mm 4 mps 746 mmHg 58%
13:00 +28°C° 0 mm 4 mps 746 mmHg 56%
14:00 +29°C° 0 mm 4 mps 745 mmHg 55%
15:00 +29°C° 0 mm 4 mps 745 mmHg 58%
16:00 +29°C° 0 mm 4 mps 745 mmHg 61%
17:00 +28°C° 0 mm 4 mps 745 mmHg 64%
18:00 +27°C° 0 mm 4 mps 745 mmHg 69%
19:00 +25°C° 0 mm 3 mps 744 mmHg 75%
20:00 +22°C° 0 mm 3 mps 744 mmHg 81%
21:00 +21°C° 0 mm 3 mps 744 mmHg 85%
22:00 +20°C° 0 mm 3 mps 744 mmHg 88%
23:00 +20°C° 0 mm 3 mps 744 mmHg 91%

22 June, Tuesday

Time Temperature Precipitation Wind Pressure Humidity
00:00 +19°C° 0 mm 3 mps 744 mmHg 93%
01:00 +19°C° 0 mm 3 mps 744 mmHg 94%
02:00 +19°C° 0 mm 3 mps 744 mmHg 95%
03:00 +19°C° 0 mm 3 mps 743 mmHg 95%
04:00 +20°C° 0 mm 3 mps 743 mmHg 95%
05:00 +20°C° 0 mm 3 mps 743 mmHg 95%
06:00 +21°C° 0 mm 4 mps 743 mmHg 90%
07:00 +22°C° 0 mm 4 mps 743 mmHg 86%
08:00 +23°C° 0 mm 5 mps 744 mmHg 82%
09:00 +25°C° 0.2 mm 5 mps 743 mmHg 78%
10:00 +26°C° 0.2 mm 5 mps 743 mmHg 75%
11:00 +27°C° 0.2 mm 6 mps 743 mmHg 71%
12:00 +28°C° 0.6 mm 6 mps 743 mmHg 71%
13:00 +28°C° 0.6 mm 5 mps 743 mmHg 71%
14:00 +28°C° 0.6 mm 5 mps 743 mmHg 70%
15:00 +28°C° 0.6 mm 5 mps 744 mmHg 72%
16:00 +28°C° 0.6 mm 4 mps 744 mmHg 74%
17:00 +27°C° 0.6 mm 4 mps 744 mmHg 76%
18:00 +26°C° 0.2 mm 3 mps 743 mmHg 79%
19:00 +26°C° 0.2 mm 3 mps 743 mmHg 81%
20:00 +25°C° 0.2 mm 2 mps 743 mmHg 84%
21:00 +24°C° 0.7 mm 2 mps 743 mmHg 86%
22:00 +22°C° 0.7 mm 3 mps 743 mmHg 89%
23:00 +22°C° 0.7 mm 3 mps 743 mmHg 91%
Show more